[[{"header":{"parameterUnit":"m.s-1","parameterCategory":1,"la1":30.2991,"la2":30.254,"lo1":-89.0895,"lo2":-89.0444,"dy":0.0017,"dx":0.0017,"nx":28,"ny":28,"refTime":"2023-11-01T21:00:00:Z","depth":0,"parameterNumber":2,"parameterNumberName":"U-component_of_WINDS"},"data":[0,0,0,0,0,0,0,0,0,0,0,0,0,0,0,0,0,0,0,0,0,0,0,0,0,0,0,0,0,0,0,0,0,0,0,0,0,0,0,0,0,0,0,0,0,0,0,0,0,0,0,0,0,0,0,0,0,0,-4.2532,-4.2532,0,-4.2521,-4.2521,-4.2521,-4.239,-4.2386,-4.2383,-4.238,-4.2372,-4.2375,-4.2378,0,0,0,0,0,0,0,0,0,0,0,0,0,-4.2443,-4.2445,-4.2532,-4.2532,-4.2531,-4.2521,-4.2521,-4.2521,-4.239,-4.2386,-4.2382,-4.2378,-4.2372,-4.2375,-4.2378,0,0,0,0,0,0,0,0,0,0,0,0,0,-4.2462,-4.2446,-4.2532,-4.2465,-4.2459,-4.2521,-4.2521,-4.2521,-4.2391,-4.2386,-4.2381,-4.2377,-4.237,-4.2375,-4.2379,-4.2505,0,0,-4.2392,-4.2394,0,0,0,0,0,0,0,0,-4.2461,-4.2466,-4.2475,-4.247,-4.2463,-4.2451,-4.2487,-4.2516,-4.2392,-4.2417,-4.238,-4.2374,-4.2403,-4.2404,-4.2413,-4.2505,-4.2504,-4.2392,-4.2395,-4.2397,-4.2398,0,0,0,0,0,0,0,-4.246,-4.2465,-4.2527,-4.2475,-4.2468,-4.2437,-4.2434,-4.2492,-4.2438,-4.2414,-4.2405,-4.2405,-4.2399,-4.2409,-4.2412,-4.2504,-4.2392,-4.2396,-4.2399,-4.2401,-4.27,-4.2705,0,0,0,0,0,0,-4.2468,-4.2465,-4.2528,-4.2527,-4.245,-4.2443,-4.2439,-4.246,-4.2437,-4.2429,-4.241,-4.2399,-4.2405,-4.2407,-4.2411,-4.2558,-4.2397,-4.2401,-4.2403,-4.2695,-4.2701,-4.2707,0,0,0,0,0,0,-4.2466,-4.2474,-4.2528,-4.2493,-4.2498,-4.2449,-4.2474,-4.2463,-4.2473,-4.2433,-4.2423,-4.243,-4.2401,-4.2405,-4.2483,-4.2556,-4.2403,-4.2407,-4.2688,-4.2697,-4.2704,-4.2853,0,0,0,0,0,0,-4.2464,-4.2475,-4.2521,-4.2495,-4.25,-4.2599,-4.2478,-4.2466,-4.248,-4.2467,-4.245,-4.2442,-4.2397,-4.2477,-4.2487,-4.2559,-4.241,-4.2682,-4.2692,-4.2702,-4.2841,-4.2865,-4.2886,0,0,0,0,0,-4.2461,-4.2564,-4.2524,-4.2532,-4.2557,-4.2603,-4.2606,-4.2551,-4.2487,-4.2534,-4.2509,-4.2443,-4.2547,-4.2486,-4.2496,-4.2571,-4.2677,-4.2689,-4.2701,-4.2831,-4.2861,-4.2885,0,0,0,0,0,0,-4.26,-4.2559,-4.2515,-4.2612,-4.2612,-4.2581,-4.2638,-4.2584,-4.2603,-4.2589,-4.2521,-4.2519,-4.2607,-4.2597,-4.253,-4.2693,-4.26,-4.2615,-4.2696,-4.2723,-4.2745,-4.2746,-4.2414,0,0,0,0,0,-4.2642,-4.2682,-4.2644,-4.2734,-4.2736,-4.2688,-4.2706,-4.2663,-4.2661,-4.2661,-4.2641,-4.2643,-4.2676,-4.2699,-4.2727,-4.2839,-4.2834,-4.2896,-4.2918,-4.2936,-4.295,-4.301,-4.3037,-4.2747,-4.2747,-4.2746,0,0,-4.2729,-4.2711,-4.2741,-4.2761,-4.2756,-4.28,-4.2689,-4.274,-4.2772,-4.2669,-4.2741,-4.2727,-4.2724,-4.282,-4.2861,-4.2814,-4.3029,-4.2952,-4.2967,-4.297,-4.3025,-4.3053,-4.3077,-4.2755,-4.2753,-4.2752,0,0,-4.291,-4.29,-4.2974,-4.2971,-4.2965,-4.2933,-4.2951,-4.2929,-4.2915,-4.2986,-4.291,-4.2948,-4.3006,-4.3008,-4.3016,-4.32,-4.3141,-4.3211,-4.3326,-4.3386,-4.3409,-4.3429,-4.3495,-4.352,-4.3224,-4.3225,-4.3225,0,-4.3019,-4.3081,-4.3019,-4.3075,-4.3087,-4.2995,-4.307,-4.3071,-4.3076,-4.3087,-4.3033,-4.3105,-4.3096,-4.3192,-4.3237,-4.3246,-4.3266,-4.3212,-4.341,-4.343,-4.3447,-4.351,-4.3535,-4.3233,-4.3232,-4.3232,-4.3231,0,-4.3215,-4.326,-4.3321,-4.3326,-4.3345,-4.3411,-4.336,-4.3387,-4.3343,-4.3317,-4.3391,-4.3378,-4.3403,-4.3422,-4.338,-4.3513,-4.3484,-4.3422,-4.3327,-4.3485,-4.3542,-4.3566,-4.3246,-4.3243,-4.324,-4.3238,0,0,-4.3483,-4.3454,-4.3477,-4.3479,-4.3466,-4.35,-4.3563,-4.3585,-4.361,-4.3617,-4.3668,-4.372,-4.3663,-4.3673,-4.363,-4.3683,-4.383,-4.3614,-4.3613,-4.3655,-4.3977,-4.4024,-4.4052,-4.3791,-4.3795,-4.3799,-4.3977,0,-4.3657,-4.376,-4.3708,-4.3818,-4.386,-4.3774,-4.3828,-4.3827,-4.3805,-4.3838,-4.3813,-4.3851,-4.3772,-4.3778,-4.3826,-4.3802,-4.3894,-4.3788,-4.384,-4.3842,-4.3843,-4.4082,-4.4132,-4.4301,-4.3999,-4.4003,-4.4006,0,-4.3874,-4.389,-4.4005,-4.3985,-4.4001,-4.4051,-4.4068,-4.41,-4.4098,-4.4078,-4.409,-4.4036,-4.4097,-4.4005,-4.4089,-4.4019,-4.4037,-4.4029,-4.4034,-4.4037,-4.3934,-4.4093,-4.4353,-4.4379,-4.404,-4.4038,-4.4035,0,-4.4059,-4.4108,-4.4183,-4.4188,-4.4167,-4.4204,-4.4198,-4.419,-4.4208,-4.4224,-4.4235,-4.4259,-4.4272,-4.4292,-4.4247,-4.4183,-4.4338,-4.4241,-4.4325,-4.4326,-4.4361,-4.436,-4.463,-4.4373,-4.4372,-4.4372,-4.4371,0,-4.426,-4.4334,-4.4266,-4.4312,-4.4393,-4.4332,-4.4415,-4.4399,-4.4394,-4.4437,-4.4364,-4.4407,-4.4344,-4.438,-4.4346,-4.4422,-4.4428,-4.4415,-4.4405,-4.4422,-4.4424,-4.4433,-4.442,-4.4378,-4.4377,-4.4376,-4.4375,0,-4.4479,-4.4436,-4.4513,-4.4487,-4.4483,-4.4544,-4.4522,-4.4565,-4.4538,-4.4594,-4.4603,-4.4561,-4.4601,-4.4557,-4.4594,-4.457,-4.4674,-4.4646,-4.4674,-4.4667,-4.4753,-4.4746,-4.5038,-4.5074,-4.4794,-4.4797,-4.4799,0,-4.461,-4.4665,-4.4645,-4.4668,-4.4666,-4.4704,-4.4722,-4.4665,-4.4686,-4.4689,-4.4732,-4.4765,-4.4789,-4.4857,-4.483,-4.4858,-4.4831,-4.4932,-4.4835,-4.4851,-4.4834,-4.4831,-4.4837,-4.4952,-4.4955,-4.4958,-4.496,0,-4.4847,-4.4824,-4.4851,-4.4873,-4.4896,-4.491,-4.4918,-4.4942,-4.4883,-4.4911,-4.495,-4.4969,-4.5006,-4.5041,-4.5061,-4.5056,-4.5,-4.4991,-4.5012,-4.503,-4.5044,-4.5039,-4.4729,-4.4985,-4.4982,-4.498,-4.4979,-4.4978,-4.5026,-4.5072,-4.5065,-4.5099,-4.5099,-4.511,-4.5149,-4.5127,-4.5158,-4.5183,-4.5148,-4.5197,-4.5196,-4.5217,-4.5219,-4.5258,-4.5215,-4.5245,-4.5253,-4.5261,-4.5275,-4.5038,-4.5261,-4.526,-4.526,-4.5259,-4.5258,0,-4.526,-4.5252,-4.5284,-4.5298,-4.5326,-4.5269,-4.5276,-4.5303,-4.5347,-4.5349,-4.5374,-4.542,-4.5454,-4.5431,-4.546,-4.5495,-4.547,-4.5505,-4.5502,-4.5502,-4.5311,-4.529,-4.5525,-4.5525,-4.5525,-4.5525,-4.5525,-4.5525,-4.5385,-4.5459,-4.5436,-4.551,-4.5501,-4.5548,-4.5557,-4.5567,-4.5569,-4.5623,-4.565,-4.5635,-4.5628,-4.5656,-4.5685,-4.5677,-4.5692,-4.5736,-4.572,-4.5541,-4.5515,-4.549,-4.547,-4.5739,-4.574,-4.5907,-4.5909,-4.591]},{"header":{"parameterUnit":"m.s-1","parameterCategory":1,"la1":30.2991,"la2":30.254,"lo1":-89.0895,"lo2":-89.0444,"dy":0.0017,"dx":0.0017,"nx":28,"ny":28,"refTime":"2023-11-01T21:00:00:Z","depth":0,"parameterNumber":3,"parameterNumberName":"V-component_of_WINDS"},"data":[0,0,0,0,0,0,0,0,0,0,0,0,0,0,0,0,0,0,0,0,0,0,0,0,0,0,0,0,0,0,0,0,0,0,0,0,0,0,0,0,0,0,0,0,0,0,0,0,0,0,0,0,0,0,0,0,0,0,-1.0908,-1.0908,0,-1.092,-1.092,-1.092,-1.0881,-1.088,-1.0879,-1.0878,-1.0892,-1.0893,-1.0895,0,0,0,0,0,0,0,0,0,0,0,0,0,-1.0854,-1.0855,-1.0908,-1.0908,-1.0909,-1.092,-1.092,-1.092,-1.0881,-1.088,-1.0878,-1.0877,-1.0891,-1.0893,-1.0895,0,0,0,0,0,0,0,0,0,0,0,0,0,-1.0873,-1.0856,-1.0908,-1.0891,-1.0889,-1.092,-1.092,-1.092,-1.0882,-1.088,-1.0878,-1.0876,-1.0891,-1.0893,-1.0895,-1.0944,0,0,-1.0902,-1.0903,0,0,0,0,0,0,0,0,-1.0872,-1.0875,-1.0893,-1.0892,-1.089,-1.0897,-1.0906,-1.0928,-1.0882,-1.0885,-1.0878,-1.0876,-1.0895,-1.0897,-1.0903,-1.0945,-1.0946,-1.0902,-1.0904,-1.0905,-1.0905,0,0,0,0,0,0,0,-1.0871,-1.0874,-1.0913,-1.0893,-1.0892,-1.0882,-1.0883,-1.091,-1.09,-1.0884,-1.0881,-1.0883,-1.0894,-1.0901,-1.0903,-1.0946,-1.0902,-1.0904,-1.0905,-1.0906,-1.1027,-1.1029,0,0,0,0,0,0,-1.0871,-1.0873,-1.0913,-1.0913,-1.0876,-1.0885,-1.0886,-1.0897,-1.0899,-1.0898,-1.0885,-1.0881,-1.0898,-1.0901,-1.0904,-1.0961,-1.0904,-1.0907,-1.0908,-1.1025,-1.1028,-1.103,0,0,0,0,0,0,-1.087,-1.0875,-1.0912,-1.0893,-1.0896,-1.0888,-1.09,-1.0898,-1.0905,-1.09,-1.0898,-1.0893,-1.0897,-1.09,-1.0934,-1.0961,-1.0908,-1.091,-1.1023,-1.1026,-1.1029,-1.1076,0,0,0,0,0,0,-1.0869,-1.0875,-1.0894,-1.0893,-1.0898,-1.0942,-1.0902,-1.0899,-1.0908,-1.0904,-1.0907,-1.0906,-1.0896,-1.0931,-1.0936,-1.0963,-1.0911,-1.1021,-1.1025,-1.1028,-1.1072,-1.1081,-1.1087,0,0,0,0,0,-1.0867,-1.0907,-1.0895,-1.09,-1.0921,-1.0944,-1.0947,-1.0933,-1.0911,-1.0929,-1.0926,-1.0906,-1.0957,-1.0935,-1.094,-1.0968,-1.1019,-1.1024,-1.1028,-1.1069,-1.1079,-1.1087,0,0,0,0,0,0,-1.0913,-1.0907,-1.0893,-1.0934,-1.094,-1.0937,-1.0961,-1.0944,-1.0956,-1.0952,-1.0935,-1.0936,-1.0973,-1.0973,-1.0949,-1.1015,-1.0984,-1.099,-1.1014,-1.1023,-1.103,-1.103,-1.0913,0,0,0,0,0,-1.0927,-1.0946,-1.094,-1.0977,-1.0981,-1.097,-1.098,-1.0968,-1.0974,-1.0976,-1.0975,-1.0982,-1.0999,-1.1011,-1.1026,-1.1072,-1.1072,-1.1093,-1.1101,-1.1107,-1.1113,-1.1136,-1.1146,-1.1044,-1.1044,-1.1044,0,0,-1.0959,-1.0958,-1.0971,-1.0987,-1.0989,-1.101,-1.0973,-1.0996,-1.1011,-1.098,-1.1012,-1.1011,-1.1017,-1.1056,-1.1074,-1.1058,-1.114,-1.1112,-1.1117,-1.112,-1.1141,-1.1151,-1.116,-1.1047,-1.1046,-1.1046,0,0,-1.1026,-1.1027,-1.1057,-1.106,-1.1064,-1.1057,-1.1064,-1.1063,-1.1061,-1.1092,-1.1069,-1.1087,-1.1117,-1.1122,-1.1128,-1.1194,-1.1177,-1.12,-1.124,-1.1263,-1.1271,-1.1278,-1.1302,-1.1311,-1.1205,-1.1205,-1.1205,0,-1.1064,-1.1093,-1.1075,-1.11,-1.1107,-1.1078,-1.1109,-1.1113,-1.1123,-1.1129,-1.111,-1.1146,-1.1148,-1.1189,-1.1204,-1.121,-1.1219,-1.1201,-1.1271,-1.1278,-1.1284,-1.1307,-1.1316,-1.1208,-1.1208,-1.1207,-1.1207,0,-1.114,-1.1161,-1.1185,-1.1193,-1.1203,-1.1231,-1.1217,-1.1229,-1.1216,-1.1211,-1.1242,-1.1243,-1.1258,-1.1266,-1.1254,-1.1304,-1.1294,-1.1274,-1.1243,-1.1297,-1.1318,-1.1327,-1.1212,-1.1211,-1.121,-1.121,0,0,-1.1239,-1.1235,-1.1245,-1.1248,-1.1249,-1.1265,-1.129,-1.1303,-1.1314,-1.1321,-1.1343,-1.1367,-1.1348,-1.1355,-1.1343,-1.1363,-1.1416,-1.134,-1.134,-1.1355,-1.1471,-1.1487,-1.1498,-1.1403,-1.1405,-1.1406,-1.1471,0,-1.1306,-1.1349,-1.1333,-1.1378,-1.1396,-1.1367,-1.139,-1.1393,-1.1388,-1.1403,-1.1397,-1.1415,-1.1388,-1.1392,-1.141,-1.1406,-1.1439,-1.1401,-1.1424,-1.1425,-1.1425,-1.1509,-1.1526,-1.1587,-1.1479,-1.148,-1.1481,0,-1.139,-1.1398,-1.1445,-1.1441,-1.1448,-1.1469,-1.1479,-1.1493,-1.1496,-1.149,-1.1497,-1.1481,-1.1506,-1.1473,-1.1507,-1.1481,-1.149,-1.1489,-1.1491,-1.1494,-1.1458,-1.1515,-1.1606,-1.1616,-1.1494,-1.1493,-1.1492,0,-1.1458,-1.1481,-1.1511,-1.1515,-1.1511,-1.1526,-1.1526,-1.1526,-1.1535,-1.1544,-1.1549,-1.1561,-1.1568,-1.1577,-1.1564,-1.1541,-1.1601,-1.1567,-1.1598,-1.1598,-1.1613,-1.1613,-1.1708,-1.1616,-1.1616,-1.1616,-1.1616,0,-1.1534,-1.1564,-1.1542,-1.1561,-1.1593,-1.1573,-1.1606,-1.1602,-1.1602,-1.162,-1.1596,-1.1613,-1.1594,-1.161,-1.1599,-1.1629,-1.1633,-1.1629,-1.1627,-1.1632,-1.1633,-1.1639,-1.1635,-1.1618,-1.1618,-1.1617,-1.1617,0,-1.1617,-1.1603,-1.1635,-1.1628,-1.1627,-1.1651,-1.1645,-1.1663,-1.1654,-1.1677,-1.1681,-1.1669,-1.1686,-1.1673,-1.169,-1.1683,-1.1723,-1.1713,-1.1722,-1.172,-1.1751,-1.1749,-1.1856,-1.1869,-1.1767,-1.1768,-1.1769,0,-1.1668,-1.169,-1.1685,-1.1694,-1.1695,-1.1711,-1.1718,-1.1699,-1.1709,-1.1712,-1.1729,-1.1743,-1.1754,-1.1782,-1.1775,-1.1788,-1.1779,-1.1816,-1.1781,-1.1786,-1.1781,-1.178,-1.1782,-1.1823,-1.1825,-1.1825,-1.1826,0,-1.1759,-1.1751,-1.1763,-1.1772,-1.1781,-1.1788,-1.1793,-1.1802,-1.1782,-1.1794,-1.181,-1.1818,-1.1834,-1.1849,-1.1859,-1.1858,-1.184,-1.1837,-1.1845,-1.1852,-1.1856,-1.1854,-1.1742,-1.1835,-1.1834,-1.1833,-1.1833,-1.1833,-1.1828,-1.1846,-1.1844,-1.1858,-1.1859,-1.1864,-1.1879,-1.1872,-1.1885,-1.1896,-1.1883,-1.1903,-1.1904,-1.1914,-1.1916,-1.1932,-1.1917,-1.1928,-1.1931,-1.1935,-1.1939,-1.1852,-1.1933,-1.1933,-1.1933,-1.1932,-1.1932,0,-1.1919,-1.1916,-1.1928,-1.1935,-1.1945,-1.1924,-1.1928,-1.1938,-1.1956,-1.1957,-1.1968,-1.1986,-1.1999,-1.1992,-1.2004,-1.2018,-1.2009,-1.2022,-1.2021,-1.2021,-1.1952,-1.1944,-1.2028,-1.2028,-1.2028,-1.2028,-1.2028,-1.2028,-1.1968,-1.1996,-1.1987,-1.2016,-1.2012,-1.2031,-1.2035,-1.2038,-1.2039,-1.206,-1.2071,-1.2066,-1.2064,-1.2075,-1.2086,-1.2084,-1.209,-1.2106,-1.21,-1.2036,-1.2026,-1.2018,-1.201,-1.2107,-1.2107,-1.2169,-1.2169,-1.217]}]]